Regional Weather Roundup
Issued by NWS Boston, MA

Current Version | Previous Version | Text Only | Print | Product List | Glossary On
Versions: 1 2 3 4 5 6 7 8 9 10 11 12 13 14 15 16 17 18 19 20 21 22 23 24 25 26 27 28
000
ASUS41 KBOX 291610
RWRBOX

REGIONAL WEATHER ROUNDUP
NATIONAL WEATHER SERVICE TAUNTON MA
1200 PM EDT SAT APR 29 2017

NOTE:  "FAIR" INDICATES FEW OR NO CLOUDS BELOW 12,000 FEET WITH NO
SIGNIFICANT WEATHER AND/OR OBSTRUCTIONS TO VISIBILITY.

MAZALL-291700-
EASTERN MASSACHUSETTS

CITY           SKY/WX    TMP DP  RH WIND       PRES   REMARKS
BOSTON         CLOUDY    80  55  42 W17G25    29.88F
BEVERLY        PTSUNNY   80  56  43 SW12G24   29.87F
LAWRENCE       CLOUDY    82  53  36 SW13G20   29.88F
BEDFORD        CLOUDY    81  52  36 W14G21    29.87F
BLUE HILL        N/A     80  53  39 SW12G29   29.90F
NORWOOD        CLOUDY    82  56  40 SW12      29.89F
MARSHFIELD     CLOUDY    81  61  50 SW12G18   29.90F
PLYMOUTH       CLOUDY    77  60  55 S12G18    29.93F
TAUNTON        CLOUDY    76  59  55 SW13      29.92F
NEW BEDFORD    CLOUDY    72  62  71 SW15      29.93F
$$

MAZALL-291700-
CAPE COD AND THE ISLANDS

CITY           SKY/WX    TMP DP  RH WIND       PRES   REMARKS
FALMOUTH       MOSUNNY   68  61  77 MISG      29.97F
HYANNIS        CLOUDY    70  62  76 SW21      29.93F
CHATHAM        PTSUNNY   63  58  83 SW8G21    29.96F
PROVINCETOWN   MOSUNNY   66  58  75 S15       29.92F
NANTUCKET      FOG       57  53  86 SW13      29.99F VSB 3/4
MARTHAS VNYRD  MOSUNNY   66  58  75 SW15G30   29.98F
$$

MAZALL-291700-
CENTRAL AND WESTERN MASSACHUSETTS

CITY           SKY/WX    TMP DP  RH WIND       PRES   REMARKS
WORCESTER      MOSUNNY   76  51  41 SW15G26   29.94F
FITCHBURG      CLOUDY    82  53  36 W14G23    29.90F
ORANGE         MOSUNNY   79  54  41 W15G24    29.91F
SPRINGFIELD    PTSUNNY   78  55  44 SW9       29.91F
WESTFIELD      CLOUDY    78  59  51 SW7       29.92F
NORTH ADAMS    CLOUDY    72  52  49 W16G25    29.95F
PITTSFIELD     CLOUDY    71  53  52 W14       29.96F
$$

RIZALL-291700-
RHODE ISLAND

CITY           SKY/WX    TMP DP  RH WIND       PRES   REMARKS
PROVIDENCE     CLOUDY    71  61  70 S7        29.93F
NEWPORT        MOSUNNY   65  61  87 SW9G21    29.96F
BLOCK ISLAND   CLOUDY    63  57  82 SW16      29.98F FOG
WESTERLY       CLOUDY    66  60  81 SW8       29.97F
$$

CTZALL-291700-
CONNECTICUT

CITY           SKY/WX    TMP DP  RH WIND       PRES   REMARKS
BRADLEY INTL   CLOUDY    80  58  46 SW10      29.93F
HARTFORD       PTSUNNY   80  61  52 W9        29.92F
BRIDGEPORT     CLOUDY    72  63  73 SW8       29.94F
DANBURY        MOSUNNY   76  62  62 W12G23    29.98F
GROTON         PTSUNNY   66  61  84 S8        29.95F
NEW HAVEN      CLOUDY    68  62  81 VRB5      29.95F
CHESTER        FAIR      73  63  68 SW8G18    29.96F
MERIDEN        CLOUDY    77  61  57 S10       29.94F
WILLIMANTIC    CLOUDY    81  62  52 W12G20    29.94F
OXFORD         PTSUNNY   77  57  50 W12G20    29.99F
$$

MEZ002-015-021-024-NHZ003-005-008-011-012-014-VTZ005-008-291700-
NORTHERN NEW ENGLAND

CITY           SKY/WX    TMP DP  RH WIND       PRES   REMARKS
PORTLAND ME    CLOUDY    79  45  29 SW15G22   29.83F
BANGOR ME      PTSUNNY   69  52  54 S7        29.82F
CONCORD NH     CLOUDY    80  48  32 W15G21    29.87F
MANCHESTER NH  CLOUDY    80  49  33 W9        29.86F
NASHUA NH      PTSUNNY   79  54  41 W15G24    29.88F
PORTSMOUTH NH  PTSUNNY   80  51  35 SW10      29.84F
JAFFREY NH     MOSUNNY   77  53  43 SW13      29.92F
KEENE NH       CLOUDY    77  54  44 SW9       29.90F
BURLINGTON VT  CLOUDY    72  46  39 SW8       29.88F
MT. WASHINGTON CLOUDY    43  41  93 W49G60      N/A  WCI  30
$$

NYZ052-076-291700-
EASTERN NEW YORK

CITY           SKY/WX    TMP DP  RH WIND       PRES   REMARKS
ALBANY         CLOUDY    70  49  47 NW15      29.98S
NEW YORK CITY  CLOUDY    81  59  47 W16G24    29.97F
$$

ANZALL-291700-
MARINE OBSERVATIONS

STATION/POSITION TIME  TEMP    WIND        PRES    VSBY  WAVE
                       AIR SEA DIR/SP/G                  HT/PER
                 (UTC) (F)     (DEG/KT/KT) (MB)    (MI)  (FT/S)
BOSTON BUOY      1450   55 49  150/ 10/ 10 1012.8          2/ 8
BUZZARDS BAY     1500   54     220/ 21/ 23 1015.4R
NANTUCKET SOUND  1550      49              1015.0F         1/17
MASS BAY-STELLWA 1504   54 48  190/  8/  8 1012.2F         3/ 8
ISLE OF SHOALS   1500   68     210/ 14/ 14 1012.2F
S OF BLOCK IS    1555      49                N/A           4/ 7
$$

......................KEY.........................
  SKY/WX - SKY CONDITION/PRESENT WEATHER
  TMP    - TEMPERATURE IN FAHRENHEIT
  DWPT   - DEWPOINT IN FAHRENHEIT
  RH     - RELATIVE HUMIDITY IN PERCENT
  WIND   - DIRECTION AND SPEED IN MPH
  PRES   - MEAN SEA LEVEL PRESSURE IN INCHES OF HG
  WCI    - WIND CHILL INDEX
  VSB    - VISIBILITY IN MILES
  HX     - HEAT INDEX
  TC     - TEMPERATURE IN CELSIUS
  VRB    - VARIABLE WIND DIRECTION
  N/A    - NOT AVAILABLE




USA.gov is the U.S. government's official web portal to all federal, state and local government web resources and services.